Regional Weather Roundup
Issued by NWS

Home | Current Version | Previous Version | Graphics & Text | Print | Product List | Glossary On
Versions: 1 2 3 4 5 6 7 8 9 10 11 12 13 14 15 16 17 18 19 20 21 22 23 24 25 26 27 28 29 30 31 32 33 34 35 36 37 38 39 40 41 42 43 44 45 46 47 48 49 50
000
ASUS45 KTFX 221119
RWRMT
MONTANA HOURLY WEATHER ROUNDUP
NATIONAL WEATHER SERVICE GREAT FALLS MT
519 AM MDT TUE APR 22 2014

NOTE: "FAIR" INDICATES FEW OR NO CLOUDS BELOW 12000 FEET WITH NO
SIGNIFICANT WEATHER AND/OR OBSTRUCTIONS TO VISIBILITY.

* THESE STATIONS ARE NOT UNDER NWS QUALITY CONTROL. THEY DO NOT
   REPORT WEATHER SUCH AS PRECIPITATION OR FOG.

MTZ001>007-043-221200-
WEST OF THE DIVIDE
CITY           SKY/WX    TMP DP  RH WIND       PRES   REMARKS
KALISPELL      PTCLDY    43  30  60 VRB5      29.69F
MISSOULA       CLOUDY    46  30  54 E8        29.73F
BUTTE          MOCLDY    37  25  62 SE3       29.80F
MULLAN PASS    CLOUDY    39  25  57 SE9       29.71F WCI  33
* ESSEX        N/A       36  27  70 S11G16     N/A   WCI  28
* LINCOLN      N/A       32  26  79 W1         N/A
* LOOKOUT PASS N/A       35  30  82 SE3        N/A
* POLSON       N/A       42  29  60 N1         N/A
* RONAN APT    MOCLDY    41  34  76 N/A        N/A
* SEELEY LAKE  N/A       32  26  79 NE2        N/A
* THOMP F APT  CLOUDY    46  34  63 E8G17      N/A
* YAAK HILL    N/A       38  35  89 N/A        N/A
$$

MTZ008-052>055-221200-
SOUTHWEST MONTANA
CITY           SKY/WX    TMP DP  RH WIND       PRES   REMARKS
BOZEMAN        CLOUDY    52  27  38 SE10      29.79F
DILLON         MOCLDY    54  28  37 SW6       29.77F
W YELLOWSTONE  N/A       42  34  73 NE4        N/A
* THREE FORKS  CLOUDY    46  30  54 N/A        N/A
* BOULDER HILL N/A       45  20  37 SW7        N/A
* MONIDA PASS  N/A       43  33  68 SE13G18    N/A
* RAYNOLDS PAS N/A       43  26  51 SE14G23    N/A
* WHITEHALL    N/A       46  24  42 N3         N/A
* WISE RIVER   N/A       34  27  76 W3         N/A
$$

MTZ009>010-012-014-046-048-049-054-221200-
EAST SLOPES AND CENTRAL MONTANA
CITY           SKY/WX    TMP DP  RH WIND       PRES   REMARKS
CUT BANK       PTCLDY    34  25  70 NW6       29.75F WCI  29
GREAT FALLS    CLOUDY    46  25  44 SW5       29.75F
HELENA         CLOUDY    46  27  48 CALM      29.76F
MALMSTROM AFB  CLOUDY    46  27  48 S6        29.72F
* CONRAD       PTCLDY    30  25  82 S6         N/A   WCI  24
* DEARBORN     N/A       40  28  62 S2         N/A
* EAST GLACIER N/A       40  24  53 NW3        N/A
* MONARCH      N/A       47  17  30 S9G15      N/A
* PENDROY      N/A       42  24  49 SW3        N/A
* ROGERS PASS  N/A       40  25  55 NW2        N/A
* SAINT MARY   N/A       29  25  85 S2         N/A
* SWEET GRASS  N/A       43  22  43 SW9G15     N/A
* WHITE SULPH  N/A       44  22  42 NE8G17     N/A
$$

MTZ011-013-016-021-035-040-045-047-050-051-221200-
NORTH CENTRAL MONTANA
CITY           SKY/WX    TMP DP  RH WIND       PRES   REMARKS
HAVRE          MOCLDY    61  21  21 SE12G22   29.75F
LEWISTOWN      CLOUDY    48  25  41 E7        29.80F
* CHINOOK      MOCLDY    50  25  38 E10       29.77F
* FORT BENTON  CLOUDY    50  25  38 SE3       29.76F
* MALTA APT    CLOUDY    46  23  40 S6        29.81F
* CHESTER      N/A       45  22  40 S3         N/A
* DENTON       N/A       48  26  42 SE10       N/A
* GEYSER       N/A       40  23  51 S8         N/A   WCI  35
* JUDITH GAP   N/A       44  24  45 S8         N/A
* LOMA         N/A       51  25  36 NE11       N/A
$$

MTZ017>020-022>027-061-062-221200-
NORTHEAST MONTANA
CITY           SKY/WX    TMP DP  RH WIND       PRES   REMARKS
GLASGOW        MOCLDY    46  28  50 E16       29.87F
JORDAN         MOCLDY    45  28  51 E8        29.85F
SIDNEY         PTCLDY    45  30  56 S3        29.98F
WOLF POINT     MOCLDY    43  30  60 NE9       29.93F
* BEAVER HILL  N/A       41  31  68 E17        N/A
* CIRCLE       N/A       46  29  52 N/A        N/A
* LINDSAY DVD  N/A       40  28  62 NE9        N/A   WCI  34
* NAVAJO       N/A       37  29  73 E6         N/A   WCI  32
* SACO         N/A       44  26  49 NE16       N/A
* SCOBEY APT   PTCLDY    43  27  53 E10G16    29.93F
$$

MTZ028>042-056>058-221200-
SOUTHCENTRAL AND SOUTHEAST MONTANA
CITY           SKY/WX    TMP DP  RH WIND       PRES   REMARKS
BAKER          PTCLDY    39  30  70 E9        29.93F WCI  33
BILLINGS       CLOUDY    48  30  50 NW6       29.82F
LIVINGSTON     CLOUDY    45  28  51 CALM      29.83F
MILES CITY     CLOUDY    48  30  50 NE5       29.86F
* LAUREL APT   CLOUDY    48  28  46 N/A        N/A
* ROUNDUP APT  CLOUDY    48  23  37 N/A        N/A
* HYSHAM       N/A       48  23  37 SE2        N/A
* LAME DEER    N/A       51  31  46 S11G17     N/A
* REED POINT   N/A       41  34  76 W1         N/A
* ROSCOE HILL  N/A       50  18  28 SW4G12     N/A
$$

REGIONAL REPORTS...DAKOTAS
CITY           SKY/WX    TMP DP  RH WIND       PRES   REMARKS
WILLISTON      MOCLDY    41  30  65 NE5       30.00F
DICKINSON      MOCLDY    41  28  60 SE13      29.99F
CROSBY         CLEAR     39  32  76 SE8       30.02F WCI  33
TIOGA          CLEAR     32  32 100 E9        30.06F WCI  24
WATFORD CITY   CLEAR     36  28  73 NE5       29.99F WCI  32
BISMARCK       PTCLDY    30  27  89 NE8       30.09S WCI  22
GRAND FORKS    PTCLDY    32  30  92 CALM      30.13R
FARGO          CLEAR     34  28  79 S5        30.13R WCI  29
BUFFALO SD     PTCLDY    45  28  51 SE12      29.88F
RAPID CITY     PTCLDY    37  28  70 SE8       29.95F WCI  31
$$

REGIONAL REPORTS...WYOMING/IDAHO/WASHINGTON
CITY           SKY/WX    TMP DP  RH WIND       PRES   REMARKS
GILLETTE       PTCLDY    45  32  60 CALM      29.90F
SHERIDAN       MOCLDY    45  37  74 CALM      29.85F
CODY           CLOUDY    55  34  45 W12G20    29.89F
YELLOWSTONE LA CLOUDY    32  30  92 CALM      30.07F
SALMON         PTCLDY    37  27  67 CALM      29.73F
MULLAN PASS    CLOUDY    39  25  57 SE9       29.71S WCI  33
SAND POINT     CLOUDY    45  37  74 CALM      29.70R
SPOKANE        CLOUDY    48  37  66 S5        29.66S
$$

REGIONAL REPORTS...ALBERTA
CITY           SKY/WX    TMP DP  RH WIND       PRES   REMARKS
CALGARY        FAIR      39  27  62 SE3       29.74F
LETHBRIDGE     CLEAR     30  27  89 SW9       29.71F WCI  22
MEDICINE HAT   CLOUDY    55  23  29 SE7       29.73F
EDMONTON       PTCLDY    39  25  57 E8        29.73F WCI  33
WATERTON GATE  N/A       34  25  70 SW6        N/A   WCI  29
CARDSTON       N/A       34  27  76 S6         N/A   WCI  29
MILK RIVER     N/A       30  23  75 NE2        N/A
$$

REGIONAL REPORTS...SASKATCHEWAN
CITY           SKY/WX    TMP DP  RH WIND       PRES   REMARKS
SWIFT CURRENT  CLOUDY    41  27  58 SE12      29.84F
MOOSE JAW      MOCLDY    37  28  70 SE9       29.95F WCI  30
REGINA         MOCLDY    37  32  82 SE16      29.99F WCI  28
VAL MARIE      N/A       45  25  45 SE13       N/A
ASSINIBOIA     N/A       37  30  76 SE8        N/A   WCI  31
CORONACH       N/A       39  32  76 E10        N/A   WCI  32

$$




USA.gov is the U.S. government's official web portal to all federal, state and local government web resources and services.